Simultaneous Nadir Overpasses (SNOs) Predictions

Prediction of SNOs between NOAA-15 and METOP-C Satellite Orbit:

Table of predicted SNOs for the next 14.0 days since TLE Epoch: 2/22/2025
Index Date (NOAA-15) Time (NOAA-15) Lat,Lon (NOAA-15) SZA (NOAA-15 ) Date (METOP-C) Time (METOP-C) Lat,Lon (METOP-C) SZA (METOP-C ) Distance(km) Time Diff (sec)
1 02/25/2025 21:00:56 -81.02, 82.22 88.75 02/25/2025 20:59:45 -81.02, 82.04 88.78 3.20 71
2 02/25/2025 21:51:24 81.03,-110.70 91.23 02/25/2025 21:50:26 81.02,-110.81 91.19 2.59 58
3 02/25/2025 22:41:55 -81.02, 56.83 88.78 02/25/2025 22:41:06 -81.03, 56.89 88.79 1.33 49
4 02/25/2025 23:32:23 81.04,-136.09 91.20 02/25/2025 23:31:47 81.02,-135.96 91.18 2.85 36
5 02/26/2025 00:22:54 -81.03, 31.43 88.81 02/26/2025 00:22:28 -81.02, 31.37 88.83 1.44 26
6 02/26/2025 01:13:21 81.03,-161.11 91.18 02/26/2025 01:13:08 81.03,-161.11 91.18 0.41 13
7 02/26/2025 02:03:53 -81.04, 6.04 88.85 02/26/2025 02:03:49 -81.03, 6.22 88.84 3.12 4
8 02/26/2025 02:54:20 81.04, 173.50 91.15 02/26/2025 02:54:30 81.02, 173.37 91.13 2.58 10
9 02/26/2025 03:44:51 -81.03, -18.99 88.86 02/26/2025 03:45:10 -81.04, -18.93 88.84 1.58 19
10 02/26/2025 04:35:19 81.04, 148.11 91.12 02/26/2025 04:35:51 81.03, 148.22 91.13 2.20 32
11 02/26/2025 05:25:50 -81.04, -44.38 88.89 02/26/2025 05:26:32 -81.03, -44.45 88.89 1.37 42
12 02/26/2025 06:16:17 81.03, 123.09 91.10 02/26/2025 06:17:12 81.04, 123.07 91.13 1.01 55
13 02/26/2025 07:06:49 -81.04, -69.77 88.93 02/26/2025 07:07:53 -81.04, -69.60 88.89 2.87 64



Historial Predications of SNOs between NOAA-15 and METOP-C
